Location: Shepherdstown, WV
(39.4326°N, 77.8042°W)
Time: 04:28:57
(UTC-04:00)

Vanguard 1 - Pass Details

Date: 01 October 2021
Orbit: 653 x 3829 km, 34.2° (Epoch: 18 October)

Event Time Altitude Azimuth Distance (km) Brightness Sun altitude
Rises 18:45:34 0° 241° (WSW) 4,777 15.0 0.6°
Reaches altitude 10° 18:48:10 10° 238° (WSW) 4,104 14.5 0.1°
Maximum altitude 18:59:53 64° 160° (SSE) 2,861 12.4 -2.1°
Drops below altitude 10° 19:20:25 10° 85° (E) 6,750 13.6 -6.1°
Enters shadow 19:22:22 - 85° (E) 7,158 13.8 -6.5°
